Simultaneous Nadir Overpasses (SNOs) Predictions

Prediction of SNOs between AQUA and METOP-B Satellite Orbit:

Table of predicted SNOs for the next 14.0 days since TLE Epoch: 4/4/2013
Index Date (AQUA) Time (AQUA) Lat,Lon (AQUA) SZA (AQUA ) Date (METOP-B) Time (METOP-B) Lat,Lon (METOP-B) SZA (METOP-B ) Distance(km) Time Diff (sec)
1 04/05/2013 09:39:27 -73.70,-150.34 112.50 04/05/2013 09:38:24 -73.67,-150.37 112.51 3.14 63
2 04/05/2013 10:28:56 73.77, 17.15 67.56 04/05/2013 10:29:01 73.78, 17.21 67.57 2.33 5
3 04/05/2013 11:18:27 -74.06,-175.85 112.14 04/05/2013 11:19:38 -74.05,-174.81 112.19 31.91 71
4 04/08/2013 05:13:45 -73.68, -83.87 113.58 04/08/2013 05:12:46 -73.68, -83.94 113.57 2.26 59
5 04/08/2013 06:03:14 73.75, 83.62 66.48 04/08/2013 06:03:23 73.78, 83.63 66.51 3.44 9
6 04/08/2013 06:52:48 -74.19,-109.73 113.07 04/08/2013 06:53:57 -74.20,-108.01 113.11 52.18 69
7 04/11/2013 00:48:03 -73.70, -17.47 114.62 04/11/2013 00:47:08 -73.68, -17.53 114.62 2.56 55
8 04/11/2013 01:37:32 73.77, 150.01 65.45 04/11/2013 01:37:45 73.78, 150.04 65.46 1.14 13
9 04/11/2013 02:27:09 -74.36, -43.70 113.93 04/11/2013 02:28:16 -74.35, -41.23 114.02 74.21 67
10 04/13/2013 20:22:20 -73.70, 48.97 115.65 04/13/2013 20:21:29 -73.72, 48.98 115.61 2.88 51
11 04/13/2013 21:11:48 73.78,-143.57 64.43 04/13/2013 21:12:06 73.77,-143.58 64.42 1.17 18
12 04/16/2013 15:56:36 -73.73, 115.33 116.62 04/16/2013 15:55:50 -73.71, 115.36 116.64 3.10 46
13 04/16/2013 16:46:04 73.77, -77.10
